CAPE
nan nan nan nan nan nan nan nan nan nan nan nan nan nan nan nan nan nan nan nan nan nan nan nan nan nan nan nan nan nan nan nan nan nan 0 0 1 1 1 2 2 2 3 3 3 3 3 3 3 4 4 5 7 7 10 13 13 16 20 22 22 23 25 26 26 26 25 27 30 30 28 25 22 22 18 21 22 22 24 24 24 26 29 32 32 37
nan nan nan nan nan nan nan nan nan nan nan nan nan nan nan nan nan nan nan nan nan nan nan nan nan nan nan nan nan nan nan nan 0 0 0 1 1 1 2 2 2 2 2 2 2 2 2 2 2 2 3 4 5 5 8 12 12 15 17 19 19 22 23 24 24 26 25 25 23 23 20 17 16 16 18 21 25 25 27 29 29 32 35 40 40 44
nan nan nan nan nan nan nan nan nan nan nan nan nan nan nan nan nan nan nan nan nan nan nan nan nan nan nan nan nan nan nan nan 0 0 0 1 1 1 1 1 1 1 1 1 1 1 1 2 2 2 3 4 5 5 7 10 10 12 12 14 14 16 18 19 19 20 21 21 19 19 16 14 16 16 20 24 27 27 28 31 31 34 38 44 44 49
nan nan nan nan nan nan nan nan nan nan nan nan nan nan nan nan nan nan nan nan nan nan nan nan nan nan nan nan nan nan nan 0 0 0 1 1 1 1 1 1 1 1 1 1 1 1 1 2 2 2 3 4 5 5 7 8 8 9 10 11 11 12 14 14 14 16 16 16 14 14 14 16 18 18 21 25 26 26 27 30 30 35 41 50 50 56
nan nan nan nan nan nan nan nan nan nan nan nan nan nan nan nan nan nan nan nan nan nan nan nan nan nan nan nan nan nan nan 0 0 0 1 1 1 1 1 1 1 1 1 1 1 2 2 2 2 3 4 5 6 6 7 7 7 8 9 10 10 11 12 13 13 14 14 14 13 13 15 16 19 19 21 23 25 25 28 31 31 35 42 52 52 58
nan nan nan nan nan nan nan nan nan nan nan nan nan nan nan nan nan nan nan nan nan nan nan nan nan nan nan nan nan nan nan 1 1 1 1 0 1 1 1 1 1 1 2 2 2 2 2 3 3 4 4 6 6 6 7 8 8 8 10 10 10 10 12 13 13 12 13 13 13 13 14 16 17 17 18 20 25 25 27 32 32 36 40 48 48 56
0 0 nan nan nan nan nan nan nan nan nan nan nan nan nan nan nan nan nan nan nan nan nan nan nan nan nan nan nan nan nan 0 0 0 0 0 0 0 1 1 1 1 2 3 3 3 3 4 4 5 5 7 7 7 8 9 9 9 9 10 10 10 10 11 11 12 12 12 12 12 13 14 14 14 16 19 22 22 26 31 31 36 38 44 44 52
3 1 0 nan nan nan nan nan nan nan nan nan nan nan nan nan nan nan nan nan nan nan nan nan nan nan nan nan nan nan nan nan nan nan nan nan nan nan nan 1 1 2 2 3 3 3 4 5 5 5 5 6 6 6 7 6 6 6 6 6 6 7 8 9 9 10 11 12 12 12 14 14 15 15 15 16 19 19 22 28 28 34 40 44 44 48
5 2 1 nan nan nan nan nan nan nan nan nan nan nan nan nan nan nan nan nan nan nan nan nan nan nan nan nan nan nan nan nan nan nan nan nan nan nan nan 0 0 2 3 3 3 4 4 4 4 5 5 5 5 5 5 5 5 5 5 5 5 6 7 8 8 9 11 12 13 13 13 14 13 13 15 16 18 18 21 24 24 33 40 48 48 51
4 1 1 nan nan 0 nan nan nan nan nan nan nan nan nan nan nan nan nan nan nan nan nan nan nan nan nan nan nan nan nan nan nan nan 1 nan 1 1 nan nan nan nan 2 3 3 4 4 4 4 4 4 4 4 4 4 3 3 3 3 4 4 5 6 7 7 10 11 11 13 13 14 14 16 16 16 17 18 18 20 22 22 25 34 46 46 53
4 3 0 nan nan nan nan nan nan nan nan nan nan nan nan nan nan nan nan nan nan nan nan nan nan nan nan nan nan nan nan nan nan nan nan nan nan nan nan nan nan 0 2 3 3 3 3 3 3 3 4 4 3 3 3 2 2 3 3 5 5 6 7 8 8 11 13 15 17 17 18 19 19 19 21 19 21 21 21 23 23 24 30 39 39 49
3 2 0 nan nan nan nan nan nan nan nan nan nan nan nan nan nan nan nan nan nan nan nan nan nan nan nan nan nan nan nan nan nan nan nan nan nan nan nan nan nan nan nan nan nan 1 2 2 2 3 2 2 3 3 2 1 1 3 4 6 6 7 9 12 12 14 17 21 22 22 23 25 26 26 27 25 24 24 23 23 23 25 29 35 35 45
3 2 1 nan nan 0 nan nan nan nan nan nan nan nan 1 nan nan nan nan nan nan nan nan nan nan nan nan nan nan nan nan nan nan nan nan nan nan nan nan nan nan nan nan nan nan nan nan 1 1 2 2 1 2 2 3 2 2 4 5 8 8 10 14 16 16 21 23 26 28 28 30 30 30 30 31 30 29 29 28 27 27 29 31 33 33 41
2 1 1 1 1 0 0 nan nan nan 2 1 1 1 0 nan nan nan nan nan nan nan nan nan nan nan nan nan nan nan nan nan nan nan nan nan nan nan nan nan nan nan nan nan nan nan nan nan nan nan nan 0 0 0 0 2 2 5 8 12 12 16 19 22 22 26 29 32 30 30 33 32 34 34 34 34 33 33 34 33 33 33 34 36 36 40
1 1 1 1 1 1 2 1 2 2 1 1 nan nan nan nan nan nan nan 0 0 nan nan nan nan nan nan nan nan nan nan nan nan nan nan nan nan nan nan nan nan nan nan nan nan nan nan nan nan nan nan nan nan nan nan 1 1 12 14 17 17 21 23 27 27 26 28 30 30 30 30 29 31 31 32 33 35 35 35 35 35 35 36 37 37 40
2 2 1 2 2 4 2 2 2 2 1 0 0 0 nan 1 0 0 1 2 2 1 0 nan nan nan nan nan nan nan nan nan nan nan nan nan nan nan nan nan nan nan nan nan nan nan nan nan nan nan nan nan 0 0 4 8 8 15 16 20 20 20 20 21 21 23 23 25 26 26 29 29 30 30 32 32 35 35 35 37 37 38 40 41 41 41
5 5 5 4 4 4 2 1 0 0 nan nan nan nan 0 1 2 2 2 2 2 0 1 nan nan nan nan nan nan nan nan nan nan nan nan nan nan nan nan nan nan nan nan nan nan nan nan nan nan nan nan nan 4 4 7 12 12 15 15 16 16 16 16 16 16 17 19 22 25 25 27 30 30 30 29 30 33 33 36 38 38 40 42 41 41 44
9 8 9 6 6 2 1 0 nan nan nan 0 1 1 2 4 3 3 2 1 1 0 0 0 0 nan nan nan nan nan nan nan 0 0 nan nan nan nan nan nan nan nan nan nan nan nan nan nan nan nan nan 3 6 6 9 12 12 15 16 15 15 15 15 16 16 17 20 21 25 25 27 29 29 29 29 30 33 33 34 37 37 40 42 41 41 44
12 9 6 2 2 2 1 0 0 0 2 1 2 2 3 3 3 3 2 2 2 0 nan nan nan nan nan nan nan nan nan 0 1 1 0 0 nan nan nan nan nan nan nan nan nan nan nan nan nan nan 0 5 8 8 11 13 13 16 17 17 17 17 18 17 17 19 21 22 25 25 25 28 28 28 29 30 32 32 34 37 37 41 45 44 44 42
9 5 2 1 1 1 1 1 2 2 3 6 8 8 4 3 1 1 2 1 1 1 1 0 0 nan nan nan nan nan nan 1 2 2 1 0 nan nan nan nan nan nan nan nan nan nan nan nan nan nan nan 3 9 9 13 17 17 21 21 21 21 20 21 21 21 22 22 22 25 25 26 27 28 28 31 31 31 31 36 40 40 47 48 47 47 46
5 2 1 0 0 1 1 2 3 3 9 15 10 10 6 2 1 1 1 1 1 1 1 1 1 1 1 0 nan nan 1 1 2 2 1 nan nan nan nan nan nan nan nan nan nan nan nan nan nan nan nan 3 11 11 17 21 21 25 25 25 25 24 23 22 22 23 25 26 27 27 28 29 30 30 30 31 34 34 37 45 45 51 50 50 50 49
3 2 0 1 1 3 5 2 9 9 17 16 10 10 3 1 1 1 1 1 1 3 5 5 5 2 2 1 1 1 0 0 0 0 1 nan nan nan nan nan nan nan nan nan nan nan nan nan nan nan nan 9 16 16 21 23 23 26 27 27 27 27 27 26 26 27 27 29 29 29 34 35 35 35 35 36 38 38 42 47 47 51 50 55 55 55
4 2 2 2 2 4 7 6 9 9 17 13 8 8 1 0 1 1 2 5 5 7 8 5 5 4 2 1 0 0 nan nan 0 0 0 nan nan nan nan nan nan nan nan nan nan nan nan nan nan nan nan 16 18 18 21 26 26 27 29 30 30 31 30 31 31 30 31 33 33 33 36 38 39 39 38 39 43 43 46 51 51 51 55 57 57 58
4 4 3 4 4 5 6 6 4 4 4 2 1 1 2 3 4 4 9 13 13 9 7 5 5 3 nan nan nan nan nan nan nan nan nan nan nan nan nan nan nan nan nan nan nan nan nan nan nan nan nan 10 19 19 23 25 25 30 32 32 32 34 34 32 32 33 33 35 37 37 40 41 42 42 44 45 47 47 50 53 53 57 57 60 60 59
4 5 5 6 6 7 7 5 6 6 4 4 5 5 10 21 26 26 17 8 8 3 2 1 1 0 0 0 nan nan nan nan nan nan nan nan nan nan nan nan nan nan nan nan nan nan nan nan nan nan nan nan 17 17 23 28 28 30 35 36 36 38 38 38 38 39 40 40 42 42 44 47 47 47 50 51 51 51 57 58 58 63 62 62 62 60
8 8 7 14 14 28 37 44 49 49 40 18 12 12 8 8 6 6 3 2 2 1 2 1 1 0 nan nan nan nan nan nan nan nan nan nan nan nan nan nan nan nan nan nan nan nan nan nan nan nan nan nan 15 15 23 29 29 33 38 39 39 42 44 44 44 45 43 45 47 47 48 50 51 51 53 56 58 58 59 62 62 63 64 61 61 61
24 26 32 39 39 44 51 57 58 58 54 37 11 11 3 3 2 2 2 3 3 2 2 1 1 0 nan nan nan nan nan nan nan nan nan nan nan nan nan nan nan nan nan nan nan nan nan nan nan nan nan nan nan nan 18 26 26 36 40 42 42 45 47 47 47 48 46 43 46 46 48 51 52 52 54 58 60 60 61 60 60 63 62 59 59 59
23 26 32 38 38 42 46 41 36 36 28 25 29 29 15 4 2 2 2 2 2 2 1 1 1 0 0 nan nan nan nan nan nan nan nan nan nan nan nan nan nan nan nan nan nan nan 1 nan nan nan nan nan nan nan 3 23 23 33 37 43 43 43 46 46 46 42 44 43 45 45 45 49 54 54 56 54 58 58 60 59 59 63 63 46 46 19
21 27 37 37 37 31 24 19 15 15 13 15 20 20 16 1 2 2 3 1 1 2 2 1 1 1 0 nan nan nan nan nan nan nan nan nan nan nan nan nan nan nan nan nan nan nan nan nan nan nan nan nan nan nan nan 18 18 27 33 36 36 40 41 41 41 40 41 43 47 47 47 53 55 55 58 56 60 60 60 61 61 61 49 32 32 14
15 25 19 13 13 7 2 nan 0 0 6 10 16 16 13 2 1 1 1 2 2 1 2 3 3 3 1 0 nan nan nan nan nan nan nan nan nan nan nan nan nan nan nan nan nan nan nan nan nan nan nan nan nan nan nan nan nan nan 7 33 33 37 38 43 43 45 45 48 51 51 54 58 61 61 62 62 63 63 66 64 64 54 30 15 15 13
1 nan nan nan nan nan nan nan nan nan 4 9 11 11 5 nan nan nan 0 1 1 1 1 2 2 2 2 1 nan nan nan nan nan nan nan nan nan nan nan nan nan nan nan nan nan nan nan nan nan nan nan nan nan nan nan nan nan nan nan nan nan 6 35 42 42 47 52 55 60 60 62 66 67 67 69 69 69 69 71 73 73 57 21 15 15 13
nan nan nan nan nan nan nan nan nan nan nan nan nan nan nan 1 2 2 1 1 1 1 1 3 3 3 3 3 2 2 0 nan 0 0 0 nan nan nan nan nan nan nan nan nan nan nan nan nan nan nan nan nan nan nan nan nan nan nan nan nan nan nan 16 34 34 36 37 51 62 62 65 65 69 69 68 70 72 72 74 71 71 66 30 13 13 12
nan nan nan nan nan nan nan nan nan nan nan nan nan nan nan nan 3 3 2 0 0 0 1 2 2 3 3 2 1 1 0 nan 2 2 4 nan nan nan nan nan nan nan nan nan nan nan nan nan nan nan nan nan nan nan nan nan nan nan nan nan nan nan 1 10 10 7 18 28 35 35 53 60 62 62 65 69 71 71 70 72 72 70 54 13 13 12
nan nan nan nan nan nan nan nan nan nan nan nan nan nan nan nan nan nan 1 0 0 1 1 1 1 1 2 0 1 1 nan nan 2 2 4 nan nan nan nan nan nan nan nan nan nan nan nan nan nan nan nan nan nan nan nan nan nan nan nan nan nan nan nan nan nan nan 2 7 1 1 9 13 49 49 51 60 65 65 69 73 73 72 69 37 37 21
nan nan nan nan nan nan nan nan nan nan nan nan nan nan nan nan nan nan 1 0 0 0 nan nan nan 0 1 1 1 1 0 nan nan nan 4 nan nan nan nan nan nan nan nan nan nan nan nan nan nan nan nan nan nan nan nan nan nan nan nan nan nan nan nan nan nan nan 1 1 1 1 0 0 4 4 18 39 60 60 70 74 74 79 77 76 76 52
nan nan nan nan nan nan nan nan nan nan nan nan nan nan nan nan nan nan nan nan nan 0 1 nan nan nan nan nan nan nan nan nan nan nan 3 nan nan nan nan nan nan nan nan nan nan nan nan nan nan 1 1 nan nan nan nan nan nan nan nan nan nan nan nan nan nan nan nan nan nan nan nan 0 2 2 7 49 69 69 75 80 80 81 83 85 85 79
nan nan nan nan nan nan nan nan nan nan nan nan nan nan nan nan nan nan nan nan nan nan nan 0 0 0 5 nan nan nan nan nan nan nan 0 nan nan nan nan nan nan 0 nan nan nan nan nan nan nan nan nan nan nan nan nan nan nan nan nan nan nan nan nan nan nan nan nan nan nan nan 2 2 8 8 16 50 57 57 72 82 82 78 83 83 83 80
nan nan nan nan nan nan nan nan nan nan nan nan nan nan nan nan nan nan nan nan nan nan nan nan nan nan 2 10 nan nan nan nan nan nan nan nan nan nan nan nan nan nan nan nan nan nan nan nan nan nan nan nan nan nan nan nan nan nan nan nan nan nan nan nan nan nan nan 0 7 7 15 12 7 7 10 17 18 18 19 21 21 49 70 69 69 78
nan nan nan nan nan nan nan nan nan nan nan nan nan nan nan nan nan nan nan nan nan nan nan nan nan nan nan nan 4 4 3 nan nan nan nan nan nan nan nan nan nan nan nan nan nan nan nan nan nan nan nan nan nan nan nan nan nan nan nan nan nan nan nan nan nan nan 0 0 10 10 12 2 1 1 2 2 6 6 7 11 11 23 23 16 16 45
nan nan nan 0 0 nan nan nan nan nan nan nan nan nan nan nan nan nan nan nan nan nan nan nan nan nan nan 0 nan nan nan nan nan nan nan nan nan nan nan nan nan nan nan nan nan nan nan nan nan nan nan nan nan nan nan nan nan nan 4 nan nan nan 0 nan nan nan nan nan nan nan nan nan nan nan 0 3 4 4 6 4 4 9 16 6 6 5
0 nan 0 nan nan nan nan nan nan nan nan nan nan nan nan nan nan nan nan nan nan nan nan nan nan nan nan nan nan nan nan nan nan nan nan nan nan nan nan nan nan nan nan nan nan nan nan nan nan nan nan nan nan nan nan nan nan 10 18 1 1 0 1 5 5 nan nan nan nan nan 0 4 7 7 4 10 6 6 8 4 4 5 15 8 8 4
2 0 0 nan nan nan nan nan nan nan nan nan nan nan nan nan nan nan nan nan nan nan nan nan nan nan nan nan nan nan nan nan nan nan nan nan nan nan nan nan nan nan nan nan nan nan nan nan nan nan nan nan nan nan nan nan nan 6 10 2 2 3 5 3 3 nan nan nan nan nan 6 1 1 1 6 4 2 2 10 5 5 22 29 13 13 7
0 nan nan nan nan nan 0 0 1 1 0 0 0 0 nan nan nan nan nan nan nan nan nan nan nan nan nan nan nan nan nan nan nan nan nan nan nan nan nan nan nan nan nan nan nan nan nan nan nan nan nan nan nan nan nan 1 1 3 2 3 3 0 nan nan nan nan nan nan nan nan nan nan nan nan 0 3 2 2 9 30 30 54 54 20 20 13
0 nan nan 0 0 0 1 1 nan nan nan nan nan nan nan nan nan nan nan nan nan nan nan nan nan nan nan nan nan nan nan nan nan nan nan nan nan nan nan nan nan nan nan nan nan nan nan nan nan nan nan nan nan nan 0 nan nan nan nan 0 0 nan nan nan nan nan nan nan nan nan nan nan nan nan 0 2 1 1 6 12 12 13 36 27 27 20
nan nan 0 1 1 1 nan nan nan nan nan 0 nan nan nan nan nan nan nan nan nan nan nan nan nan nan nan nan nan nan nan nan nan nan nan nan 2 2 nan nan nan nan nan nan nan nan nan nan nan nan nan 0 nan nan nan nan nan nan 0 1 1 nan nan nan nan nan nan nan nan nan nan nan nan nan nan nan nan nan 2 3 3 6 8 11 11 13
0 0 0 0 0 0 1 nan nan nan 0 0 nan nan nan nan nan nan nan nan nan nan nan nan nan nan nan nan nan nan nan nan nan nan nan nan nan nan nan nan nan nan nan nan nan nan nan nan nan nan nan nan nan nan nan nan nan nan nan 0 0 nan nan nan nan nan nan nan nan nan nan nan nan nan nan nan 0 0 0 nan nan 0 nan 0 0 1
nan 1 0 0 0 0 0 nan 0 0 0 nan nan nan nan nan nan nan nan nan nan nan nan nan nan nan nan nan nan nan nan nan nan nan nan nan nan nan nan nan nan nan nan nan nan nan nan nan nan nan nan nan nan nan nan nan nan nan nan nan nan nan nan nan nan nan nan nan nan nan nan nan nan nan nan 0 1 1 0 0 0 0 nan 0 0 nan
1 1 0 0 0 0 nan nan nan nan nan nan nan nan nan nan nan nan nan nan nan nan nan nan nan nan nan nan nan nan nan nan nan nan nan nan nan nan nan nan nan nan nan nan nan nan nan nan nan nan nan nan nan nan nan nan nan nan nan nan nan nan nan nan nan nan nan nan nan nan nan nan nan nan nan nan 0 0 1 1 1 1 0 1 1 1
1 0 0 0 0 0 0 nan nan nan nan nan nan nan nan nan 11 11 nan nan nan nan nan nan nan nan nan nan nan nan nan nan nan nan nan nan nan nan nan nan nan nan nan nan nan nan nan nan nan nan nan nan nan nan nan nan nan nan nan nan nan nan nan nan nan nan nan nan nan nan nan nan nan nan nan nan nan nan 0 nan nan 0 1 1 1 2
0 0 0 0 0 nan nan nan nan nan nan nan nan nan nan nan nan nan nan nan nan nan nan nan nan nan nan nan nan nan nan nan nan nan nan nan nan nan nan nan nan nan nan nan nan nan nan nan nan nan 3 2 nan nan nan nan nan nan nan nan nan nan nan nan nan nan nan nan nan nan nan nan nan nan nan nan 0 0 0 0 0 1 nan 0 0 1
1 0 0 nan nan nan nan nan nan nan nan nan nan nan nan nan nan nan nan nan nan nan nan nan nan nan nan nan nan nan nan nan nan nan nan nan nan nan nan nan nan nan nan nan nan nan nan nan nan nan 1 20 5 5 nan nan nan nan nan nan nan nan nan nan nan nan nan nan nan nan nan nan nan nan nan nan 2 2 4 4 4 1 nan nan nan 1
CIN
nan nan nan nan nan nan nan nan nan nan nan nan nan nan nan nan nan nan nan nan nan nan nan nan nan nan nan nan nan nan nan nan nan nan -0 -0 -0 -0 -0 -0 -0 -0 -0 -0 -0 -0 -0 -0 -0 -0 -0 -0 -0 -0 -0 -0 -0 -0 -0 -0 -0 -0 -0 -0 -0 -0 -0 -0 -0 -0 -0 -0 -0 -0 -0 -0 -0 -0 -0 -0 -0 -0 -0 -0 -0 -0
nan nan nan nan nan nan nan nan nan nan nan nan nan nan nan nan nan nan nan nan nan nan nan nan nan nan nan nan nan nan nan nan -0 -0 -0 -0 -0 -0 -0 -0 -0 -0 -0 -0 -0 -0 -0 -0 -0 -0 -0 -0 -0 -0 -0 -0 -0 -0 -0 -0 -0 -0 -0 -0 -0 -0 -0 -0 -0 -0 -0 -0 -0 -0 -0 -0 -0 -0 -0 -0 -0 -0 -0 -0 -0 -0
nan nan nan nan nan nan nan nan nan nan nan nan nan nan nan nan nan nan nan nan nan nan nan nan nan nan nan nan nan nan nan nan -0 -0 -0 -0 -0 -0 -0 -0 -0 -0 -0 -0 -0 -0 -0 -0 -0 -0 -0 -0 -0 -0 -0 -0 -0 -0 -0 -0 -0 -0 -0 -0 -0 -0 -0 -0 -0 -0 -0 -0 -0 -0 -0 -0 -0 -0 -0 -0 -0 -0 -0 -0 -0 -0
nan nan nan nan nan nan nan nan nan nan nan nan nan nan nan nan nan nan nan nan nan nan nan nan nan nan nan nan nan nan nan -0 -0 -0 -0 -0 -0 -0 -0 -0 -0 -0 -0 -0 -0 -0 -0 -0 -0 -0 -0 -0 -0 -0 -0 -0 -0 -0 -0 -0 -0 -0 -0 -0 -0 -0 -0 -0 -0 -0 -0 -0 -0 -0 -0 -0 -0 -0 -0 -0 -0 -0 -0 -0 -0 -0
nan nan nan nan nan nan nan nan nan nan nan nan nan nan nan nan nan nan nan nan nan nan nan nan nan nan nan nan nan nan nan -0 -0 -0 -0 -0 -0 -0 -0 -0 -0 -0 -0 -0 -0 -0 -0 -0 -0 -0 -0 -0 -0 -0 -0 -0 -0 -0 -0 -0 -0 -0 -0 -0 -0 -0 -0 -0 -0 -0 -0 -0 -0 -0 -0 -0 -0 -0 -0 -0 -0 -0 -0 -0 -0 -0
nan nan nan nan nan nan nan nan nan nan nan nan nan nan nan nan nan nan nan nan nan nan nan nan nan nan nan nan nan nan nan -0 -0 -0 -0 -0 -0 -0 -0 -0 -0 -0 -0 -0 -0 -0 -0 -0 -0 -0 -0 -0 -0 -0 -0 -0 -0 -0 -0 -0 -0 -0 -0 -0 -0 -0 -0 -0 -0 -0 -0 -0 -0 -0 -0 -0 -0 -0 -0 -0 -0 -0 -0 -0 -0 -0
-0 -0 nan nan nan nan nan nan nan nan nan nan nan nan nan nan nan nan nan nan nan nan nan nan nan nan nan nan nan nan nan -0 -0 -0 -0 -0 -0 -0 -0 -0 -0 -0 -0 -0 -0 -0 -0 -0 -0 -0 -0 -0 -0 -0 -0 -0 -0 -0 -0 -0 -0 -0 -0 -0 -0 -0 -0 -0 -0 -0 -0 -0 -0 -0 -0 -0 -0 -0 -0 -0 -0 -0 -0 -0 -0 -0
-1 -4 -6 nan nan nan nan nan nan nan nan nan nan nan nan nan nan nan nan nan nan nan nan nan nan nan nan nan nan nan nan nan nan nan nan nan nan nan nan -0 -0 -0 -0 -0 -0 -0 -0 -0 -0 -0 -0 -0 -0 -0 -0 -0 -0 -0 -0 -0 -0 -0 -0 -0 -0 -0 -0 -0 -0 -0 -0 -0 -0 -0 -0 -0 -0 -0 -0 -0 -0 -0 -0 -0 -0 -0
-5 -4 -3 nan nan nan nan nan nan nan nan nan nan nan nan nan nan nan nan nan nan nan nan nan nan nan nan nan nan nan nan nan nan nan nan nan nan nan nan -0 -0 -0 -0 -0 -0 -0 -0 -0 -0 -0 -0 -0 -0 -0 -0 -0 -0 -0 -0 -0 -0 -0 -0 -0 -0 -0 -0 -0 -0 -0 -0 -0 -0 -0 -0 -0 -0 -0 -0 -0 -0 -0 -0 -0 -0 -0
-10 -9 -6 nan nan -14 nan nan nan nan nan nan nan nan nan nan nan nan nan nan nan nan nan nan nan nan nan nan nan nan nan nan nan nan -0 nan -0 -0 nan nan nan nan -0 -0 -0 -0 -0 -0 -0 -0 -0 -0 -0 -0 -0 -0 -0 -0 -0 -0 -0 -0 -0 -0 -0 -0 -0 -0 -0 -0 -0 -0 -0 -0 -0 -0 -0 -0 -0 -0 -0 -0 -0 -0 -0 -0
-4 -7 -11 nan nan nan nan nan nan nan nan nan nan nan nan nan nan nan nan nan nan nan nan nan nan nan nan nan nan nan nan nan nan nan nan nan nan nan nan nan nan -0 -0 -0 -0 -0 -0 -0 -0 -0 -0 -0 -0 -0 -0 -0 -0 -0 -0 -0 -0 -0 -0 -0 -0 -0 -0 -0 -0 -0 -0 -0 -0 -0 -0 -0 -0 -0 -0 -0 -0 -0 -0 -0 -0 -0
-3 -4 -7 nan nan nan nan nan nan nan nan nan nan nan nan nan nan nan nan nan nan nan nan nan nan nan nan nan nan nan nan nan nan nan nan nan nan nan nan nan nan nan nan nan nan -0 -0 -0 -0 -0 -0 -0 -0 -0 -0 -0 -0 -0 -0 -0 -0 -0 -0 -0 -0 -0 -0 -0 -0 -0 -0 -0 -0 -0 -0 -0 -0 -0 -0 -0 -0 -0 -0 -0 -0 -0
-4 -5 -5 nan nan -5 nan nan nan nan nan nan nan nan -4 nan nan nan nan nan nan nan nan nan nan nan nan nan nan nan nan nan nan nan nan nan nan nan nan nan nan nan nan nan nan nan nan -0 -0 -0 -0 -0 -0 -0 -0 -0 -0 -0 -0 -0 -0 -0 -0 -0 -0 -0 -0 -0 -0 -0 -0 -0 -0 -0 -0 -0 -0 -0 -0 -0 -0 -0 -0 -0 -0 -0
-3 -5 -4 -5 -5 -6 -12 nan nan nan -5 -5 -4 -4 -8 nan nan nan nan nan nan nan nan nan nan nan nan nan nan nan nan nan nan nan nan nan nan nan nan nan nan nan nan nan nan nan nan nan nan nan nan -0 -0 -0 -0 -0 -0 -0 -0 -0 -0 -0 -0 -0 -0 -0 -0 -0 -0 -0 -0 -0 -0 -0 -0 -0 -0 -0 -0 -0 -0 -0 -0 -0 -0 -0
-4 -4 -3 -3 -3 -4 -7 -10 -5 -5 -5 -7 nan nan nan nan nan nan nan -4 -4 nan nan nan nan nan nan nan nan nan nan nan nan nan nan nan nan nan nan nan nan nan nan nan nan nan nan nan nan nan nan nan nan nan nan -0 -0 -0 -0 -0 -0 -0 -0 -0 -0 -0 -0 -0 -0 -0 -0 -0 -0 -0 -0 -0 -0 -0 -0 -0 -0 -0 -0 -0 -0 -0
-4 -4 -3 -3 -3 -4 -7 -7 -5 -5 -5 -12 -12 -12 nan -5 -9 -9 -5 -3 -3 -8 -10 nan nan nan nan nan nan nan nan nan nan nan nan nan nan nan nan nan nan nan nan nan nan nan nan nan nan nan nan nan -1 -1 -0 -0 -0 -0 -0 -0 -0 -0 -0 -0 -0 -0 -0 -0 -0 -0 -0 -0 -0 -0 -0 -0 -0 -0 -0 -0 -0 -0 -0 -0 -0 -0
-4 -3 -3 -4 -4 -3 -5 -7 -11 -11 nan nan nan nan -11 -7 -5 -5 -5 -6 -6 -8 -7 nan nan nan nan nan nan nan nan nan nan nan nan nan nan nan nan nan nan nan nan nan nan nan nan nan nan nan nan nan -0 -0 -0 -0 -0 -0 -0 -0 -0 -0 -0 -0 -0 -0 -0 -0 -0 -0 -0 -0 -0 -0 -0 -0 -0 -0 -0 -0 -0 -0 -0 -0 -0 -0
-2 -2 -2 -3 -3 -3 -5 -5 nan nan nan -7 -8 -8 -9 -9 -9 -9 -8 -8 -8 -8 -8 -8 -8 nan nan nan nan nan nan nan -14 -14 nan nan nan nan nan nan nan nan nan nan nan nan nan nan nan nan nan -0 -0 -0 -0 -0 -0 -0 -0 -0 -0 -0 -0 -0 -0 -0 -0 -0 -0 -0 -0 -0 -0 -0 -0 -0 -0 -0 -0 -0 -0 -0 -0 -0 -0 -0
-1 -2 -3 -3 -3 -3 -4 -4 -3 -3 -3 -3 -5 -5 -6 -7 -8 -8 -8 -8 -8 -9 nan nan nan nan nan nan nan nan nan -19 -8 -8 -8 -5 nan nan nan nan nan nan nan nan nan nan nan nan nan nan -0 -0 -0 -0 -0 -0 -0 -0 -0 -0 -0 -0 -0 -0 -0 -0 -0 -0 -0 -0 -0 -0 -0 -0 -0 -0 -0 -0 -0 -0 -0 -0 -0 -0 -0 -0
-2 -3 -4 -4 -4 -4 -4 -2 -1 -1 -1 -3 -5 -5 -5 -6 -7 -7 -8 -10 -10 -11 -11 -11 -11 nan nan nan nan nan nan -16 -7 -7 -6 -4 nan nan nan nan nan nan nan nan nan nan nan nan nan nan nan -0 -0 -0 -0 -0 -0 -0 -0 -0 -0 -0 -0 -0 -0 -0 -0 -0 -0 -0 -0 -0 -0 -0 -0 -0 -0 -0 -0 -0 -0 -0 -0 -0 -0 -0
-2 -4 -5 -6 -6 -4 -3 -1 -2 -2 -1 -3 -5 -5 -4 -6 -7 -7 -10 -12 -12 -12 -11 -9 -9 -9 -9 -12 nan nan -19 -14 -4 -4 -5 nan nan nan nan nan nan nan nan nan nan nan nan nan nan nan nan -0 -0 -0 -0 -0 -0 -0 -0 -0 -0 -0 -0 -0 -0 -0 -0 -0 -0 -0 -0 -0 -0 -0 -0 -0 -0 -0 -0 -0 -0 -0 -0 -0 -0 -0
-3 -3 -6 -9 -9 -4 -0 -6 -3 -3 -2 -5 -3 -3 -4 -6 -8 -8 -10 -11 -11 -8 -5 -5 -5 -8 -10 -9 -13 -13 -21 -20 -8 -8 -5 nan nan nan nan nan nan nan nan nan nan nan nan nan nan nan nan -0 -0 -0 -0 -0 -0 -0 -0 -0 -0 -0 -0 -0 -0 -0 -0 -0 -0 -0 -0 -0 -0 -0 -0 -0 -0 -0 -0 -0 -0 -0 -0 -0 -0 -0
-5 -4 -7 -9 -9 -7 -4 -9 -8 -8 -4 -4 -1 -1 -6 -9 -9 -9 -7 -6 -6 -3 -3 -5 -5 -9 -12 -14 -20 -20 nan nan -18 -18 -9 nan nan nan nan nan nan nan nan nan nan nan nan nan nan nan nan -0 -0 -0 -0 -0 -0 -0 -0 -0 -0 -0 -0 -0 -0 -0 -0 -0 -0 -0 -0 -0 -0 -0 -0 -0 -0 -0 -0 -0 -0 -0 -0 -0 -0 -0
-9 -8 -9 -10 -10 -12 -11 -8 -11 -11 -11 -10 -13 -13 -12 -10 -5 -5 -2 -2 -2 -2 -5 -7 -7 -8 nan nan nan nan nan nan nan nan nan nan nan nan nan nan nan nan nan nan nan nan nan nan nan nan nan -0 -0 -0 -0 -0 -0 -0 -0 -0 -0 -0 -0 -0 -0 -0 -0 -0 -0 -0 -0 -0 -0 -0 -0 -0 -0 -0 -0 -0 -0 -0 -0 -0 -0 -0
-15 -14 -12 -12 -12 -9 -10 -12 -8 -8 -11 -13 -14 -14 -6 -2 -1 -1 -4 -5 -5 -9 -9 -9 -9 -7 -10 -6 nan nan nan nan nan nan nan nan nan nan nan nan nan nan nan nan nan nan nan nan nan nan nan nan -0 -0 -0 -0 -0 -0 -0 -0 -0 -0 -0 -0 -0 -0 -0 -0 -0 -0 -0 -0 -0 -0 -0 -0 -0 -0 -0 -0 -0 -0 -0 -0 -0 -0
-4 -5 -6 -2 -2 -0 -0 -0 -0 -0 -0 -7 -10 -10 -10 -7 -7 -7 -11 -11 -11 -8 -7 -7 -7 -5 nan nan nan nan nan nan nan nan nan nan nan nan nan nan nan nan nan nan nan nan nan nan nan nan nan nan -0 -0 -0 -0 -0 -0 -0 -0 -0 -0 -0 -0 -0 -0 -0 -0 -0 -0 -0 -0 -0 -0 -0 -0 -0 -0 -0 -0 -0 -0 -0 -0 -0 -0
-0 -0 -0 -0 -0 -0 -0 -0 -0 -0 -0 -0 -2 -2 -9 -12 -9 -9 -6 -4 -4 -5 -4 -4 -4 -4 nan nan nan nan nan nan nan nan nan nan nan nan nan nan nan nan nan nan nan nan nan nan nan nan nan nan nan nan -0 -0 -0 -0 -0 -0 -0 -0 -0 -0 -0 -0 -0 -0 -0 -0 -0 -0 -0 -0 -0 -0 -0 -0 -0 -0 -0 -0 -0 -0 -0 -0
-0 -0 -0 -0 -0 -0 -0 -0 -0 -0 -0 -0 -0 -0 -0 -8 -4 -4 -2 -3 -3 -5 -3 -2 -2 -3 -4 nan nan nan nan nan nan nan nan nan nan nan nan nan nan nan nan nan nan nan -4 nan nan nan nan nan nan nan -11 -0 -0 -0 -0 -0 -0 -0 -0 -0 -0 -0 -0 -0 -0 -0 -0 -0 -0 -0 -0 -0 -0 -0 -0 -0 -0 -0 -0 -0 -0 -15
-0 -0 -0 -0 -0 -0 -0 -0 -0 -0 -0 -0 -0 -0 -0 -7 -3 -3 -2 -5 -5 -5 -2 -1 -1 -2 -3 nan nan nan nan nan nan nan nan nan nan nan nan nan nan nan nan nan nan nan nan nan nan nan nan nan nan nan nan -0 -0 -0 -0 -0 -0 -0 -0 -0 -0 -0 -0 -0 -0 -0 -0 -0 -0 -0 -0 -0 -0 -0 -0 -0 -0 -0 -0 -3 -3 -19
-0 -0 -0 -0 -0 -0 -0 nan -0 -0 -0 -0 -0 -0 -0 -7 -6 -6 -5 -6 -6 -5 -1 -1 -1 -2 -4 -7 nan nan nan nan nan nan nan nan nan nan nan nan nan nan nan nan nan nan nan nan nan nan nan nan nan nan nan nan nan nan -11 -0 -0 -0 -0 -0 -0 -0 -0 -0 -0 -0 -0 -0 -0 -0 -0 -0 -0 -0 -0 -0 -0 -0 -8 -20 -20 -21
-14 nan nan nan nan nan nan nan nan nan -0 -0 -0 -0 -0 nan nan nan -13 -11 -11 -6 -3 -2 -2 -3 -4 -4 nan nan nan nan nan nan nan nan nan nan nan nan nan nan nan nan nan nan nan nan nan nan nan nan nan nan nan nan nan nan nan nan nan -11 -0 -0 -0 -0 -0 -0 -0 -0 -0 -0 -0 -0 -0 -0 -0 -0 -0 -0 -0 -0 -14 -22 -22 -23
nan nan nan nan nan nan nan nan nan nan nan nan nan nan nan -6 -9 -9 -17 -15 -15 -13 -9 -5 -5 -4 -4 -2 -2 -2 -2 nan -4 -4 -9 nan nan nan nan nan nan nan nan nan nan nan nan nan nan nan nan nan nan nan nan nan nan nan nan nan nan nan -2 -0 -0 -0 -0 -0 -0 -0 -0 -0 -0 -0 -0 -0 -0 -0 -0 -0 -0 -0 -6 -24 -24 -24
nan nan nan nan nan nan nan nan nan nan nan nan nan nan nan nan -5 -5 -11 -17 -17 -16 -13 -6 -6 -4 -4 -4 -5 -5 -9 nan -0 -0 -0 nan nan nan nan nan nan nan nan nan nan nan nan nan nan nan nan nan nan nan nan nan nan nan nan nan nan nan -22 -14 -14 -18 -5 -0 -0 -0 -0 -0 -0 -0 -0 -0 -0 -0 -0 -0 -0 -0 -0 -20 -20 -22
nan nan nan nan nan nan nan nan nan nan nan nan nan nan nan nan nan nan -13 -17 -17 -16 -18 -11 -11 -6 -3 -4 -3 -3 nan nan -0 -0 -0 nan nan nan nan nan nan nan nan nan nan nan nan nan nan nan nan nan nan nan nan nan nan nan nan nan nan nan nan nan nan nan -25 -17 -34 -34 -16 -12 -0 -0 -0 -0 -0 -0 -0 -0 -0 -0 -0 -0 -0 -13
nan nan nan nan nan nan nan nan nan nan nan nan nan nan nan nan nan nan -17 -20 -20 -17 nan nan nan -14 -7 -4 -2 -2 -3 nan nan nan -0 nan nan nan nan nan nan nan nan nan nan nan nan nan nan nan nan nan nan nan nan nan nan nan nan nan nan nan nan nan nan nan -27 -29 -31 -31 -37 -41 -26 -26 -6 -0 -0 -0 -0 -0 -0 -0 -0 -0 -0 -0
nan nan nan nan nan nan nan nan nan nan nan nan nan nan nan nan nan nan nan nan nan -17 -12 nan nan nan nan nan nan nan nan nan nan nan -2 nan nan nan nan nan nan nan nan nan nan nan nan nan nan -5 -4 nan nan nan nan nan nan nan nan nan nan nan nan nan nan nan nan nan nan nan nan -37 -30 -30 -19 -0 -0 -0 -0 -0 -0 -0 -0 -0 -0 -0
nan nan nan nan nan nan nan nan nan nan nan nan nan nan nan nan nan nan nan nan nan nan nan -11 -11 -11 -5 nan nan nan nan nan nan nan -14 nan nan nan nan nan nan -4 nan nan nan nan nan nan nan nan nan nan nan nan nan nan nan nan nan nan nan nan nan nan nan nan nan nan nan nan -22 -23 -16 -16 -10 -0 -0 -0 -0 -0 -0 -0 -0 -0 -0 -0
nan nan nan nan nan nan nan nan nan nan nan nan nan nan nan nan nan nan nan nan nan nan nan nan nan nan -11 -1 nan nan nan nan nan nan nan nan nan nan nan nan nan nan nan nan nan nan nan nan nan nan nan nan nan nan nan nan nan nan nan nan nan nan nan nan nan nan nan -27 -12 -12 -7 -12 -19 -19 -16 -9 -11 -11 -10 -10 -10 -0 -0 -0 -0 -0
nan nan nan nan nan nan nan nan nan nan nan nan nan nan nan nan nan nan nan nan nan nan nan nan nan nan nan nan -14 -14 -13 nan nan nan nan nan nan nan nan nan nan nan nan nan nan nan nan nan nan nan nan nan nan nan nan nan nan nan nan nan nan nan nan nan nan nan -29 -31 -9 -9 -9 -23 -27 -27 -27 -27 -22 -22 -19 -17 -17 -8 -11 -15 -15 -0
nan nan nan -7 -7 nan nan nan nan nan nan nan nan nan nan nan nan nan nan nan nan nan nan nan nan nan nan -21 nan nan nan nan nan nan nan nan nan nan nan nan nan nan nan nan nan nan nan nan nan nan nan nan nan nan nan nan nan nan -8 nan nan nan -23 nan nan nan nan nan nan nan nan nan nan nan -31 -24 -22 -22 -19 -24 -24 -19 -14 -23 -23 -20
-3 nan -5 nan nan nan nan nan nan nan nan nan nan nan nan nan nan nan nan nan nan nan nan nan nan nan nan nan nan nan nan nan nan nan nan nan nan nan nan nan nan nan nan nan nan nan nan nan nan nan nan nan nan nan nan nan nan -3 -1 -10 -10 -18 -20 -18 -18 nan nan nan nan nan -21 -15 -13 -13 -20 -14 -21 -21 -20 -29 -29 -27 -14 -20 -20 -23
-0 -1 -7 nan nan nan nan nan nan nan nan nan nan nan nan nan nan nan nan nan nan nan nan nan nan nan nan nan nan nan nan nan nan nan nan nan nan nan nan nan nan nan nan nan nan nan nan nan nan nan nan nan nan nan nan nan nan -7 -3 -12 -12 -14 -11 -13 -13 nan nan nan nan nan -9 -14 -17 -17 -14 -20 -26 -26 -19 -29 -29 -10 -5 -15 -15 -21
-2 nan nan nan nan nan -18 -16 -8 -8 -9 -11 -7 -7 nan nan nan nan nan nan nan nan nan nan nan nan nan nan nan nan nan nan nan nan nan nan nan nan nan nan nan nan nan nan nan nan nan nan nan nan nan nan nan nan nan -11 -11 -11 -11 -10 -10 -13 nan nan nan nan nan nan nan nan nan nan nan nan -22 -20 -24 -24 -19 -7 -7 -0 -0 -11 -11 -16
-2 nan nan -13 -13 -12 -6 -5 nan nan nan nan nan nan nan nan nan nan nan nan nan nan nan nan nan nan nan nan nan nan nan nan nan nan nan nan nan nan nan nan nan nan nan nan nan nan nan nan nan nan nan nan nan nan -12 nan nan nan nan -15 -15 nan nan nan nan nan nan nan nan nan nan nan nan nan -24 -18 -21 -21 -17 -14 -14 -15 -4 -10 -10 -14
nan nan -8 -6 -6 -6 nan nan nan nan nan -4 nan nan nan nan nan nan nan nan nan nan nan nan nan nan nan nan nan nan nan nan nan nan nan nan -17 -17 nan nan nan nan nan nan nan nan nan nan nan nan nan -16 nan nan nan nan nan nan -9 -9 -9 nan nan nan nan nan nan nan nan nan nan nan nan nan nan nan nan nan -18 -18 -18 -17 -18 -18 -18 -17
-6 -8 -6 -5 -5 -7 -2 nan nan nan -7 -7 nan nan nan nan nan nan nan nan nan nan nan nan nan nan nan nan nan nan nan nan nan nan nan nan nan nan nan nan nan nan nan nan nan nan nan nan nan nan nan nan nan nan nan nan nan nan nan -8 -8 nan nan nan nan nan nan nan nan nan nan nan nan nan nan nan -14 -14 -18 nan nan -23 nan -26 -26 -25
nan -5 -7 -6 -6 -3 -7 nan -7 -7 -7 nan nan nan nan nan nan nan nan nan nan nan nan nan nan nan nan nan nan nan nan nan nan nan nan nan nan nan nan nan nan nan nan nan nan nan nan nan nan nan nan nan nan nan nan nan nan nan nan nan nan nan nan nan nan nan nan nan nan nan nan nan nan nan nan -9 -10 -10 -17 -18 -18 -22 nan -24 -24 nan
-3 -4 -5 -4 -4 -5 nan nan nan nan nan nan nan nan nan nan nan nan nan nan nan nan nan nan nan nan nan nan nan nan nan nan nan nan nan nan nan nan nan nan nan nan nan nan nan nan nan nan nan nan nan nan nan nan nan nan nan nan nan nan nan nan nan nan nan nan nan nan nan nan nan nan nan nan nan nan -8 -8 -11 -16 -16 -19 -22 -19 -19 -18
-4 -4 -3 -4 -4 -5 -5 nan nan nan nan nan nan nan nan nan -0 -0 nan nan nan nan nan nan nan nan nan nan nan nan nan nan nan nan nan nan nan nan nan nan nan nan nan nan nan nan nan nan nan nan nan nan nan nan nan nan nan nan nan nan nan nan nan nan nan nan nan nan nan nan nan nan nan nan nan nan nan nan -8 nan nan -19 -19 -19 -19 -17
-6 -5 -4 -5 -5 nan nan nan nan nan nan nan nan nan nan nan nan nan nan nan nan nan nan nan nan nan nan nan nan nan nan nan nan nan nan nan nan nan nan nan nan nan nan nan nan nan nan nan nan nan -17 -13 nan nan nan nan nan nan nan nan nan nan nan nan nan nan nan nan nan nan nan nan nan nan nan nan -5 -5 -7 -9 -9 -12 nan -24 -24 -18
-1 -4 -5 nan nan nan nan nan nan nan nan nan nan nan nan nan nan nan nan nan nan nan nan nan nan nan nan nan nan nan nan nan nan nan nan nan nan nan nan nan nan nan nan nan nan nan nan nan nan nan -12 -0 -8 -8 nan nan nan nan nan nan nan nan nan nan nan nan nan nan nan nan nan nan nan nan nan nan -5 -5 -5 -6 -6 -10 nan nan nan -19
Wind_Speed
3 3 4 4 4 4 4 4 4 5 6 6 6 6 6 7 7 7 8 8 7 7 7 7 7 8 10 14 17 19 21 21 21 21 21 22 22 22 22 22 22 22 22 22 22 22 23 23 23 23 23 23 24 24 24 24 24 24 24 24 24 24 24 24 24 24 24 24 23 23 23 23 22 22 22 22 22 21 22 22 21 21 21 21 21 22
3 3 3 4 4 4 4 4 4 4 6 7 7 7 7 7 7 6 6 6 6 6 6 7 7 8 9 11 15 18 20 21 21 21 21 22 22 22 22 22 22 23 23 23 23 23 23 23 23 23 24 24 24 24 24 24 24 24 24 24 24 24 24 24 24 24 24 24 24 24 23 23 23 22 22 22 22 22 22 22 22 22 22 22 22 22
4 3 3 3 4 4 4 5 4 4 5 6 7 7 7 7 7 6 6 6 6 6 6 6 7 8 8 10 13 17 19 20 21 21 22 22 22 22 22 23 23 23 23 23 23 23 23 23 24 24 24 24 24 24 24 24 24 24 24 24 24 24 24 24 24 24 24 24 24 24 23 23 23 23 23 23 23 23 23 23 22 22 22 22 22 22
4 4 4 3 3 3 4 4 5 5 5 6 7 7 7 6 6 6 6 6 6 6 6 6 7 7 7 8 11 14 18 20 21 21 22 22 22 22 23 23 23 23 23 23 23 23 23 24 24 24 24 24 24 24 24 24 24 24 24 24 24 24 24 24 24 24 24 24 24 24 24 23 23 23 23 23 23 23 23 23 23 23 23 23 23 23
4 4 4 4 3 4 4 4 5 5 6 6 6 6 5 5 5 5 6 6 6 6 6 6 6 6 6 7 9 13 17 20 21 21 22 22 22 22 23 23 23 23 23 23 23 23 24 24 24 24 24 24 24 24 25 25 25 25 25 25 25 25 25 25 25 25 25 24 24 24 24 24 24 24 24 24 24 24 24 23 23 23 23 23 23 24
5 4 4 4 4 4 4 4 4 5 5 5 5 5 5 4 5 5 5 6 6 6 6 5 5 6 6 7 9 13 17 19 20 21 21 22 22 22 22 22 22 23 23 23 23 23 24 24 24 24 24 25 25 25 25 25 25 25 25 25 25 25 25 25 25 25 25 25 25 25 24 24 24 24 24 24 24 24 24 24 24 24 24 24 24 24
5 4 4 3 3 3 3 4 4 4 4 4 4 4 4 4 4 5 5 5 5 5 5 5 5 5 5 7 9 12 14 16 18 19 20 20 21 21 21 22 22 22 23 23 23 23 24 24 24 25 25 25 25 25 25 25 25 25 25 25 25 25 25 25 25 25 25 25 25 25 25 25 25 25 24 24 24 24 24 24 24 24 24 24 24 24
5 5 5 4 4 4 4 3 3 3 4 4 4 5 5 4 4 4 5 5 4 4 4 4 4 4 4 5 7 9 9 11 12 13 15 16 17 18 19 20 21 22 22 23 23 23 24 24 25 25 25 25 25 25 26 26 26 25 25 25 25 25 25 25 25 26 25 25 25 25 25 25 25 25 25 25 25 25 25 25 25 25 25 25 25 25
6 6 6 5 4 4 5 4 3 3 3 4 4 5 6 6 5 5 4 4 4 3 3 4 5 5 4 4 5 6 8 9 9 10 11 11 12 14 16 18 19 21 22 22 23 24 24 24 25 25 25 25 26 26 26 26 26 26 26 26 26 26 26 26 26 26 26 26 26 26 26 26 26 26 26 25 25 25 25 25 25 25 25 25 25 25
6 6 6 5 4 4 5 5 4 3 3 4 4 5 5 6 6 6 5 4 4 3 3 4 5 6 6 5 5 6 8 10 11 13 14 13 14 16 16 17 17 18 21 22 23 24 24 24 25 25 25 26 26 26 26 26 26 26 26 26 26 26 26 26 26 26 26 26 26 26 26 26 26 26 26 26 26 25 25 25 25 25 25 25 25 25
5 5 5 4 4 4 4 4 4 4 4 4 4 4 4 4 5 6 7 7 6 4 4 4 4 5 6 6 6 6 8 8 9 11 13 14 16 17 17 17 17 18 20 21 22 23 23 24 25 25 25 25 26 26 25 25 25 25 25 25 26 26 26 26 26 26 27 27 27 27 27 27 27 27 27 26 26 26 26 26 25 25 25 25 25 25
5 5 4 4 4 4 4 4 4 4 4 3 3 3 3 3 3 5 8 8 8 7 6 5 4 4 5 6 7 7 7 7 7 7 7 8 10 11 11 12 13 14 16 17 18 19 21 22 23 24 24 24 24 25 25 24 25 25 25 26 26 26 26 26 27 27 27 27 27 27 27 27 27 27 27 27 27 27 26 26 26 26 26 25 26 26
4 4 4 4 4 4 4 4 4 4 3 3 4 5 5 4 4 5 6 7 8 7 7 6 6 5 5 5 5 5 6 6 6 6 5 5 5 5 6 7 8 8 9 10 11 12 16 19 20 21 22 22 23 23 24 24 24 25 26 26 26 26 27 27 27 27 27 27 27 27 27 27 27 27 27 27 27 27 27 27 27 26 26 26 26 26
5 5 5 5 5 5 4 4 4 4 4 4 4 5 5 5 5 5 6 6 7 6 6 7 7 6 4 4 4 4 4 5 5 5 5 5 4 4 5 6 7 7 7 8 8 9 12 14 14 15 18 19 20 21 21 23 24 25 25 26 26 26 26 27 27 27 27 27 27 27 27 27 27 27 27 27 27 27 27 27 27 27 27 27 26 26
5 5 6 6 5 5 4 4 5 5 5 5 5 5 5 5 5 5 6 7 7 7 7 7 7 6 4 4 3 3 4 4 4 5 6 6 5 5 5 7 8 8 7 8 9 10 11 11 10 10 12 14 16 18 19 21 23 25 25 26 26 26 26 26 27 27 27 27 27 28 28 28 28 28 28 28 28 28 28 28 27 27 27 27 27 27
5 5 6 6 6 5 4 4 5 5 6 5 5 5 6 6 6 6 6 7 7 7 7 8 8 7 5 3 3 3 3 4 4 6 8 7 6 5 6 7 8 9 8 8 9 9 9 9 9 9 10 14 17 20 22 23 24 25 25 26 26 27 27 27 27 28 28 28 28 28 28 29 29 29 28 28 28 28 28 28 28 28 27 27 27 27
5 5 5 6 6 6 5 5 5 5 6 5 5 5 5 6 6 6 6 7 6 6 6 6 7 7 6 4 3 2 2 4 6 7 9 9 8 6 6 7 9 10 9 9 9 9 8 8 8 8 9 13 18 21 23 24 24 25 26 27 27 27 28 28 28 28 29 29 29 29 29 29 29 29 29 29 29 29 28 28 28 28 28 28 28 28
5 5 5 5 6 6 6 6 5 4 5 5 5 5 5 5 5 6 6 6 6 6 6 6 6 6 6 6 5 3 3 6 8 9 10 11 9 7 6 7 8 10 10 9 9 8 8 8 8 9 11 17 20 23 24 25 26 26 27 28 28 28 29 29 29 29 29 29 29 30 30 30 29 29 29 29 29 29 29 29 29 29 29 29 29 28
5 5 5 5 5 6 6 5 5 5 5 5 6 6 6 6 6 6 7 6 6 7 7 7 7 6 7 7 7 6 6 7 8 10 11 11 10 8 6 7 8 10 10 9 9 8 8 8 10 13 17 20 22 24 25 26 26 27 27 28 28 29 29 29 29 30 30 30 30 30 30 30 30 30 30 30 30 30 29 29 29 29 29 29 29 29
6 5 5 5 6 6 6 6 6 6 6 6 6 6 7 7 7 7 7 6 6 6 6 7 7 8 7 8 8 7 7 8 9 10 11 12 11 9 6 6 7 9 9 8 7 7 8 8 10 12 17 19 22 24 25 26 26 27 28 28 28 29 29 29 30 30 30 30 30 30 30 30 30 30 30 30 30 30 30 30 30 30 30 30 30 29
7 6 5 5 5 6 6 6 6 7 8 7 7 7 7 7 7 7 7 6 7 7 6 7 8 8 7 8 9 8 8 8 9 9 9 10 9 7 5 5 6 8 10 8 7 7 8 8 8 9 13 18 21 23 25 26 27 27 28 28 28 29 29 30 30 30 30 31 31 31 31 31 31 31 31 30 30 30 30 30 30 30 30 30 30 30
7 7 7 6 6 6 7 7 8 8 9 8 8 7 7 7 7 7 7 7 7 7 7 8 8 8 8 9 10 9 8 7 7 8 7 10 10 8 4 5 6 7 9 8 8 8 8 8 8 9 13 18 22 24 25 26 27 27 28 28 29 29 29 30 30 30 30 31 31 31 31 31 31 31 31 31 31 30 30 30 30 30 30 30 30 30
7 7 7 7 7 7 7 7 8 8 8 8 8 7 6 6 7 7 7 7 7 7 8 8 8 9 9 9 9 9 7 6 6 6 7 10 11 9 5 5 6 8 9 8 8 8 9 8 9 10 13 19 22 24 26 26 27 27 28 28 29 29 29 30 30 30 30 31 31 31 31 31 31 31 31 31 31 31 30 30 30 30 30 30 30 30
7 7 7 7 6 6 6 7 7 6 6 6 6 6 6 6 6 6 6 6 7 7 8 8 9 9 9 9 8 7 6 5 5 5 6 8 9 9 5 5 7 10 11 9 8 8 9 9 9 9 10 16 20 23 25 26 27 27 28 28 29 29 29 29 30 30 30 30 31 31 31 31 31 31 31 31 31 30 30 30 30 30 30 30 30 30
6 7 7 7 8 9 9 9 9 9 8 7 7 6 7 7 7 7 6 7 7 8 8 9 9 9 8 8 7 6 5 4 4 5 6 7 8 9 6 6 7 9 11 9 8 8 9 10 10 9 9 13 18 22 24 26 26 27 28 28 28 29 29 29 29 30 30 30 30 30 30 31 31 31 31 31 30 30 30 30 30 30 30 30 30 30
10 11 11 12 14 16 18 18 17 16 16 12 9 8 7 7 7 7 7 7 7 7 8 9 9 8 7 6 6 5 4 4 4 4 5 6 8 9 7 6 6 8 10 9 9 9 11 11 10 10 9 11 15 19 22 24 25 26 27 27 27 28 28 28 29 29 29 30 30 30 30 30 31 31 31 31 31 31 31 31 31 31 31 31 30 30
17 18 19 20 20 19 19 19 19 20 20 18 16 13 11 8 7 8 7 7 6 7 7 8 9 9 8 7 6 5 5 4 4 4 5 6 8 9 7 6 6 8 11 11 10 10 12 12 12 11 10 10 11 14 19 21 23 24 25 26 26 27 27 28 28 29 29 30 30 30 31 31 31 31 31 31 31 31 31 31 31 31 31 30 27 25
19 18 18 17 17 17 17 18 18 19 20 20 20 18 13 9 7 8 8 6 6 7 7 8 9 9 8 7 7 6 6 5 5 4 5 5 7 7 7 7 7 8 10 11 11 11 12 12 11 11 10 10 10 11 14 17 20 22 23 24 25 26 27 28 29 29 30 30 31 31 31 31 31 32 32 32 31 31 31 31 31 31 29 25 20 16
15 15 14 14 14 15 16 16 16 17 18 19 19 17 12 8 7 7 7 7 7 7 8 8 8 8 8 8 8 7 7 5 4 4 4 5 6 7 6 7 7 8 9 10 10 10 10 9 9 9 9 10 10 9 10 13 15 17 19 22 24 25 26 28 29 29 30 30 31 31 31 31 31 32 32 32 31 31 31 32 31 28 23 19 16 14
8 8 8 9 10 11 11 11 11 13 15 17 17 15 11 7 6 6 7 7 7 7 8 8 8 8 8 8 8 8 6 4 3 3 4 5 6 7 7 8 8 8 7 8 9 9 8 7 6 7 8 10 10 9 8 9 10 11 13 17 19 21 24 26 27 28 29 30 30 31 31 31 31 31 31 31 31 31 31 32 30 25 17 14 13 13
4 5 5 5 6 6 6 7 7 9 11 12 13 12 9 7 6 6 6 6 6 7 8 8 8 8 8 7 7 7 5 4 4 4 5 6 6 7 8 9 9 8 7 6 8 9 10 8 7 7 9 10 10 10 9 9 10 10 10 11 12 15 19 22 24 26 27 28 28 29 30 30 30 31 31 31 31 31 31 32 29 23 15 13 13 13
5 5 5 5 5 5 5 5 5 6 6 7 7 7 7 7 7 6 6 6 6 7 7 8 8 8 8 7 7 7 6 5 6 7 7 6 6 7 7 9 9 9 7 6 7 8 10 9 8 8 9 10 10 10 10 10 10 10 9 10 10 12 16 19 21 21 22 24 25 27 28 29 29 30 30 30 30 30 31 31 29 24 16 14 13 13
6 6 5 5 5 5 5 5 5 5 5 5 5 5 6 6 7 7 6 6 6 6 7 8 8 9 9 9 9 8 7 7 8 9 9 7 6 6 7 8 10 10 9 8 8 8 9 10 10 10 10 10 10 10 10 10 10 10 10 10 11 12 14 15 16 16 16 18 20 21 24 26 27 28 29 29 29 30 30 31 30 26 21 15 13 13
6 6 6 6 5 5 5 5 5 5 5 5 5 5 5 5 6 6 6 6 6 6 6 7 8 9 9 9 9 9 9 8 9 10 10 8 7 7 8 9 10 10 10 9 9 9 9 11 12 11 10 10 9 9 10 10 11 10 10 10 11 11 11 11 12 12 13 14 14 15 17 18 21 23 24 26 27 27 28 29 30 29 27 20 16 14
6 6 6 5 5 5 5 5 5 5 5 5 5 5 5 5 5 6 6 6 6 6 6 7 7 8 9 9 10 10 10 9 10 11 11 9 8 7 8 9 9 10 10 10 10 9 10 12 13 13 12 12 10 9 9 10 10 10 10 10 11 11 11 10 10 11 12 12 12 12 12 13 14 16 18 20 23 25 27 28 29 30 30 27 23 18
5 6 6 5 5 5 5 5 5 5 5 5 5 5 5 5 6 6 6 6 7 7 8 8 8 8 9 9 10 11 11 10 11 11 12 10 9 9 8 9 9 10 11 11 11 10 11 12 14 14 14 14 12 10 9 9 10 10 10 10 11 11 11 11 11 11 12 12 12 12 12 12 12 13 14 19 22 25 27 28 29 30 31 31 29 26
5 5 5 4 5 5 5 5 5 5 5 5 5 5 5 6 6 7 7 7 7 8 9 10 10 10 11 11 11 12 12 11 12 12 13 12 11 10 10 10 10 11 11 12 12 11 12 13 14 14 13 13 12 11 10 10 10 10 11 11 11 11 12 11 11 11 12 12 13 13 13 13 13 13 14 19 22 24 25 27 28 28 30 30 31 31
5 5 5 4 4 4 5 5 5 5 5 5 6 6 6 7 7 8 8 8 8 9 9 9 10 11 14 15 15 15 14 15 15 16 16 13 12 11 11 11 12 12 12 12 12 12 12 13 14 14 13 13 13 13 13 12 12 12 12 11 11 11 11 11 11 11 11 12 13 13 14 13 13 13 13 15 15 15 17 17 19 21 25 25 28 29
5 5 5 5 5 5 5 5 5 5 6 6 6 7 7 8 8 8 8 8 8 9 10 10 10 10 12 14 16 17 16 16 17 17 16 14 12 11 12 12 13 13 13 12 12 13 13 13 13 13 13 14 14 14 13 12 13 13 13 13 12 11 11 11 11 11 11 11 12 13 13 12 12 12 12 12 12 12 13 13 13 15 16 16 18 22
5 5 5 5 5 5 5 6 6 6 6 7 7 8 8 8 8 8 8 8 8 9 9 10 10 10 11 12 13 14 15 14 14 14 13 12 11 11 12 13 13 13 13 12 12 12 13 13 14 14 14 15 15 14 13 13 13 13 14 13 11 10 10 10 11 11 11 11 12 12 12 12 12 12 12 12 12 12 12 11 11 12 13 12 12 13
6 6 6 5 5 5 6 6 6 6 7 7 7 7 7 7 7 7 7 8 8 8 8 9 9 9 9 10 11 12 12 13 13 13 12 13 13 14 12 13 13 13 13 13 13 12 13 14 14 15 14 15 16 16 16 15 15 16 17 14 13 12 12 12 12 11 11 11 11 12 12 13 13 13 12 13 13 12 12 12 12 12 12 11 11 11
7 6 6 5 5 5 6 6 7 7 7 7 7 7 7 7 7 8 8 8 7 8 8 8 9 9 10 10 10 10 10 11 12 13 13 14 15 14 14 13 13 13 13 13 14 14 13 14 15 15 15 15 15 15 15 15 15 15 15 14 14 14 14 13 11 10 11 11 11 11 12 12 12 12 12 12 12 12 12 13 14 14 14 12 11 11
6 6 6 6 6 6 6 7 7 7 7 6 7 7 7 6 7 7 9 8 9 9 9 9 9 10 11 11 10 9 9 9 10 12 13 13 14 15 14 14 14 13 13 13 14 14 14 14 14 14 14 14 15 16 16 16 15 14 14 14 14 13 11 10 9 9 10 11 11 11 11 11 11 11 11 12 11 11 11 13 15 16 16 13 12 11
6 6 5 6 6 6 6 6 6 6 6 7 7 7 7 7 7 8 9 9 9 9 9 9 9 10 11 11 11 10 9 8 9 11 12 13 14 14 14 15 15 14 13 13 13 13 13 13 14 14 14 14 14 15 16 16 15 15 14 14 14 14 13 12 11 11 11 11 11 11 11 11 11 11 11 12 11 11 11 12 12 13 14 13 12 12
5 5 5 6 6 6 6 6 6 6 7 7 7 7 7 7 8 8 8 9 9 9 9 9 9 9 10 10 11 11 10 10 9 9 10 12 15 16 15 14 13 13 12 12 12 12 12 13 13 13 12 13 14 15 16 16 16 16 16 15 15 15 15 14 13 13 12 12 12 12 12 11 11 11 11 11 11 11 11 12 12 12 12 12 12 12
5 5 5 5 5 6 7 7 7 7 7 7 7 7 7 8 7 7 9 9 10 10 9 9 9 9 10 11 11 11 11 10 10 9 9 9 10 11 11 11 11 11 10 11 11 12 12 12 13 13 13 14 15 15 16 16 16 16 16 16 15 14 14 14 13 13 13 13 12 12 12 12 11 11 11 11 12 12 12 12 12 12 12 12 12 12
5 5 5 5 6 6 6 7 7 7 7 7 7 7 7 7 8 8 9 9 9 9 9 9 9 10 11 11 11 11 12 12 12 11 10 10 10 10 10 10 11 11 10 10 11 11 12 12 13 14 14 15 15 16 15 15 15 16 16 15 14 14 14 13 13 12 12 13 13 12 12 11 11 11 12 12 12 12 11 12 12 12 12 12 12 12
5 5 6 6 6 6 7 7 7 7 7 7 7 7 8 8 8 9 9 9 9 9 10 9 9 10 11 11 11 12 13 13 13 13 12 11 11 11 10 9 9 9 10 10 11 12 13 13 14 14 14 15 15 16 16 15 15 14 14 14 14 14 14 14 13 12 12 13 13 13 12 10 11 12 12 12 12 12 11 11 12 12 12 12 12 12
5 5 6 6 6 6 7 7 7 7 8 8 8 8 8 9 10 11 9 9 9 9 9 10 10 11 11 11 12 12 13 13 13 13 12 12 11 10 10 10 9 9 9 10 11 12 12 13 14 14 14 14 15 16 16 15 15 14 13 13 13 13 14 14 13 12 12 13 13 13 12 11 11 12 12 13 13 13 12 12 12 12 12 12 12 12
5 5 6 6 6 7 7 7 7 7 8 9 9 9 8 8 8 8 8 8 9 9 9 10 10 11 12 12 12 13 13 13 13 12 12 11 11 10 10 10 10 10 10 10 10 10 10 10 11 12 14 15 16 16 16 15 14 14 13 12 12 12 13 13 13 12 12 12 12 12 12 12 11 11 11 12 13 14 14 13 13 12 12 11 12 12
6 6 6 6 6 7 7 7 7 8 8 9 9 9 9 8 8 8 8 8 9 9 9 10 10 11 12 13 13 13 13 13 13 13 13 11 10 10 10 10 10 11 11 11 10 10 9 9 9 10 11 15 17 17 15 14 14 13 13 12 11 11 12 12 12 12 13 12 12 12 12 12 11 11 11 11 12 13 13 13 13 13 12 11 11 12
Wind_Direction
289 294 298 298 299 300 301 306 312 316 315 317 318 316 314 314 312 309 307 305 302 300 299 299 299 300 301 304 306 307 308 309 309 309 310 310 310 310 310 310 310 310 309 309 309 309 308 308 307 307 307 306 306 306 306 305 305 305 305 305 305 305 305 305 304 304 303 303 303 302 302 302 302 301 301 300 298 297 296 295 293 292 291 290 289 288
294 297 299 302 303 302 302 310 315 315 314 315 314 314 313 312 310 308 305 302 299 298 300 300 300 300 300 301 304 306 307 308 308 309 309 309 309 309 309 310 309 309 309 308 308 308 307 307 306 306 305 305 305 305 305 305 304 304 304 304 304 304 304 303 303 302 302 302 301 301 301 300 300 299 298 297 296 295 295 294 293 293 292 291 290 289
305 304 304 304 304 304 304 311 312 311 308 308 308 308 308 308 307 306 306 305 303 300 299 299 300 299 298 298 301 304 305 306 307 308 308 309 309 309 309 309 308 308 308 307 307 306 306 305 305 305 304 304 304 304 303 303 303 303 303 303 303 302 302 302 301 301 300 300 300 299 299 298 297 297 296 295 295 295 294 294 293 293 292 291 290 289
304 303 305 305 303 299 299 306 308 308 305 303 302 302 302 302 303 303 303 304 303 302 299 296 295 296 296 296 299 301 303 305 306 307 308 308 308 308 308 307 307 306 306 306 305 305 305 304 304 304 303 303 303 303 302 302 302 302 301 301 301 301 300 300 300 299 299 299 298 298 297 297 296 296 295 295 295 294 294 294 293 292 292 291 290 289
301 300 303 305 304 301 299 302 304 305 303 301 299 299 299 298 299 300 302 301 301 300 298 295 293 292 293 294 297 300 302 304 306 306 307 307 307 306 306 305 305 304 304 304 304 303 303 303 303 302 302 302 302 301 301 301 301 300 300 300 300 300 299 299 299 298 298 298 297 297 296 296 295 295 295 294 294 294 293 293 292 292 291 291 290 289
296 298 300 304 305 304 304 304 304 304 304 301 299 298 298 296 298 299 302 301 300 299 297 295 291 289 289 290 295 298 301 304 305 306 306 305 305 304 304 303 303 303 303 303 302 302 302 302 301 301 301 301 301 300 300 300 300 299 299 299 299 298 298 298 298 297 297 297 296 296 295 295 295 294 294 293 293 293 292 292 291 291 291 290 290 289
295 297 302 302 300 299 299 299 302 303 305 304 305 303 300 298 296 296 295 295 295 295 294 292 289 287 286 288 293 298 301 303 304 304 304 303 303 303 302 302 302 302 302 301 301 301 301 300 300 300 300 300 299 299 299 299 299 298 298 298 298 297 297 297 296 296 296 295 295 295 294 294 293 293 293 292 292 292 291 291 291 290 290 290 289 289
296 300 302 300 298 297 296 295 296 298 300 304 307 308 307 304 299 294 290 288 288 289 293 294 293 291 290 291 295 298 301 302 302 302 302 302 302 302 302 301 301 301 301 300 300 300 300 299 299 299 299 299 298 298 298 298 298 297 297 297 296 296 296 295 295 295 294 294 294 293 293 293 293 292 292 291 291 291 290 290 290 289 289 289 289 288
295 298 299 297 298 300 301 298 295 294 294 298 301 304 307 306 303 300 296 292 290 290 296 301 303 303 300 299 299 301 301 301 300 301 301 301 301 301 301 301 301 300 300 299 299 299 299 298 298 298 298 297 297 297 297 296 296 296 296 295 295 295 294 294 294 293 293 293 293 292 292 292 292 291 291 291 290 290 289 289 289 288 288 288 288 287
289 291 294 295 295 297 300 300 299 294 286 286 288 292 297 302 305 307 307 305 301 300 301 305 308 308 308 306 305 303 302 300 299 299 299 299 299 299 299 299 299 299 298 298 298 298 297 297 297 297 296 296 296 295 295 295 295 294 294 294 293 293 293 293 292 292 292 292 291 291 291 291 290 290 290 290 289 289 288 288 288 287 287 287 287 286
288 289 292 294 294 293 291 293 295 294 288 285 282 280 280 290 302 310 313 312 313 313 310 309 310 311 312 311 308 305 302 299 298 297 297 296 297 297 296 296 296 296 296 296 296 296 296 295 295 294 294 294 294 293 293 293 293 293 293 292 292 292 291 291 291 290 290 290 290 290 289 289 289 289 289 288 288 288 287 287 287 286 286 286 285 285
294 295 295 296 295 294 291 289 289 289 291 293 294 293 289 294 308 314 314 313 315 316 316 312 309 307 307 307 305 303 300 296 295 294 293 293 293 293 294 293 293 293 294 294 293 293 293 293 292 292 292 292 292 292 292 291 291 291 291 290 290 290 289 289 289 288 288 288 288 288 288 287 287 287 287 287 287 286 286 286 285 285 285 284 284 283
294 296 295 293 294 294 293 295 296 299 301 304 309 311 313 319 322 319 312 309 311 313 314 311 307 302 297 294 294 295 295 293 292 291 291 291 291 291 291 291 290 290 291 291 289 288 289 290 290 290 290 290 290 290 290 289 289 289 289 288 288 288 288 287 287 287 287 286 286 286 286 286 286 286 285 285 285 285 285 285 284 284 283 283 283 282
293 293 292 291 292 293 295 297 301 304 307 311 314 316 318 321 321 318 310 305 306 307 307 304 302 300 296 287 281 280 284 288 291 291 292 290 290 291 292 291 290 290 290 289 286 285 286 287 287 287 288 288 288 288 287 287 287 286 286 286 286 286 286 286 286 286 286 285 285 285 285 285 285 285 285 284 284 284 284 284 283 283 283 282 282 281
291 292 291 291 292 294 297 300 303 306 310 317 320 320 318 317 315 312 308 305 304 306 305 301 299 296 291 283 277 274 279 287 293 297 297 293 291 291 292 292 291 290 289 288 286 286 286 285 285 284 285 283 283 283 283 284 284 285 285 286 286 286 286 286 286 286 286 286 286 286 286 286 285 285 285 284 284 284 283 283 283 282 282 282 281 281
287 288 288 290 292 295 300 305 310 312 315 319 320 318 314 311 309 307 305 303 305 307 308 306 305 301 293 280 272 273 284 293 297 299 300 297 295 294 295 294 293 291 290 287 287 287 287 285 282 281 281 281 281 282 283 284 284 285 286 287 287 288 288 288 288 288 288 288 287 287 287 286 286 285 285 284 284 283 283 283 283 282 282 282 281 280
282 283 285 290 295 299 307 312 313 313 314 313 311 307 304 303 303 304 303 303 304 305 305 307 308 308 306 302 294 286 300 305 304 302 300 296 296 297 297 294 292 291 290 287 286 286 287 284 282 280 279 281 283 284 285 286 287 288 289 289 289 289 289 289 289 288 288 287 287 287 286 286 285 285 285 284 284 284 283 283 283 282 282 281 281 280
282 286 292 297 301 305 310 310 310 308 307 304 301 298 296 297 299 300 300 300 300 301 301 301 301 301 304 305 306 312 324 315 309 304 300 296 296 297 298 292 288 287 288 286 285 284 284 283 282 282 283 285 286 287 288 289 289 289 290 289 289 289 289 288 288 287 287 287 286 286 286 286 285 285 285 284 284 284 283 283 283 282 282 281 280 280
290 295 302 303 304 304 305 304 303 302 300 299 300 301 301 300 298 296 294 292 292 293 295 296 294 293 294 295 301 313 327 318 310 303 299 296 295 296 298 290 285 283 283 283 284 284 283 282 282 283 285 287 287 288 288 289 289 288 288 288 288 287 287 287 287 286 286 286 286 286 285 285 285 285 284 284 284 283 283 283 282 282 281 281 280 280
294 296 298 301 302 300 296 294 294 294 295 297 299 300 298 297 295 291 289 288 287 286 288 289 290 291 292 294 300 311 324 318 308 299 294 292 292 293 295 288 284 283 282 281 282 283 283 282 283 284 285 286 286 287 287 287 287 287 287 287 286 286 286 286 286 286 286 285 285 285 285 285 284 284 284 283 283 282 282 282 281 281 280 280 279 279
295 293 294 296 294 292 288 288 288 290 293 296 296 293 290 289 288 286 286 287 288 288 288 287 289 293 298 299 303 310 318 313 304 297 292 290 288 288 290 285 282 282 283 283 284 284 283 283 282 282 283 284 285 285 286 286 286 286 286 286 286 285 285 285 285 285 284 284 284 284 284 284 283 283 283 282 282 282 281 281 280 280 280 279 279 278
287 286 285 282 279 277 279 283 286 288 289 289 286 283 282 285 286 287 289 291 292 293 293 292 294 297 301 299 300 303 307 300 293 290 292 289 287 286 289 287 286 286 286 288 289 288 284 283 282 281 282 284 285 285 286 286 286 285 285 285 285 284 284 284 284 283 283 283 283 283 283 283 283 283 282 282 282 281 281 280 280 280 279 279 278 278
272 274 276 274 271 270 275 279 281 281 280 276 274 274 276 280 283 287 293 297 299 299 299 297 297 296 294 292 292 293 293 287 285 285 287 286 288 290 299 298 294 290 287 290 291 290 286 283 282 282 283 284 285 285 285 285 285 285 284 284 284 283 283 283 283 283 283 283 283 283 283 282 282 282 282 281 281 281 280 280 280 279 279 278 278 278
265 269 272 271 269 268 270 272 273 272 269 267 267 270 274 279 283 289 296 303 304 302 300 298 295 291 288 288 287 288 288 285 283 283 281 282 286 292 304 304 296 291 287 289 291 291 289 286 283 283 283 284 284 285 285 285 284 284 284 284 283 283 283 283 283 282 282 282 282 282 282 282 282 282 281 281 281 281 280 280 280 279 279 278 278 278
268 268 269 270 270 270 272 273 275 278 281 281 283 286 290 293 296 298 300 301 299 297 296 294 292 291 291 292 291 289 287 283 281 280 280 283 286 290 297 298 294 290 289 291 292 292 290 288 286 285 283 283 283 284 284 284 284 283 283 283 282 282 282 282 282 282 282 282 282 282 282 282 282 282 282 281 281 281 281 280 280 280 279 279 279 278
280 279 278 279 279 281 283 286 289 293 298 301 304 306 307 306 304 302 298 296 296 296 295 292 291 291 294 294 292 290 290 284 279 277 279 284 287 290 292 293 291 290 292 294 296 295 292 290 289 288 286 284 283 283 283 283 282 282 282 282 282 282 281 282 282 282 282 282 282 282 282 282 282 282 282 282 282 282 282 281 281 281 280 280 280 279
285 284 284 284 285 288 292 296 300 303 306 307 307 307 307 307 303 299 294 296 297 298 297 295 294 294 294 291 289 289 292 290 284 278 276 281 284 287 292 296 297 296 296 296 295 294 292 291 291 291 288 284 282 281 280 281 281 282 282 282 282 282 282 282 283 283 283 283 283 283 283 283 283 282 282 282 282 282 282 281 281 281 281 281 280 279
283 283 284 288 292 297 302 305 307 307 307 305 304 304 303 302 298 294 293 298 301 299 294 292 293 294 294 292 290 290 291 289 284 279 277 279 282 286 296 301 302 300 299 296 294 292 290 289 289 288 286 283 281 279 279 282 283 283 284 284 284 284 283 283 283 283 283 283 282 282 282 282 282 281 281 281 281 280 280 280 280 280 280 279 278 276
280 283 289 296 303 307 309 309 307 305 302 301 301 301 301 298 293 291 293 299 299 294 288 287 287 289 291 292 292 290 287 282 280 281 289 287 286 288 299 301 302 301 302 299 296 292 285 283 284 285 285 286 286 285 285 287 287 286 286 284 284 283 282 282 282 281 281 281 281 281 280 280 280 279 279 279 279 278 278 278 279 279 278 276 274 273
282 291 301 308 311 311 308 304 300 298 297 297 298 299 298 293 287 286 289 292 290 286 284 285 286 288 291 295 294 291 284 280 285 300 309 297 292 293 301 300 300 302 306 304 301 296 288 283 283 286 289 291 292 292 291 289 286 284 283 282 280 279 279 279 279 279 279 279 279 279 278 278 278 278 278 277 277 277 277 277 277 276 275 272 271 270
305 310 311 310 307 303 298 292 289 289 292 294 295 295 292 285 279 277 280 281 280 280 282 284 286 288 291 294 295 292 289 292 306 317 316 299 292 294 301 300 299 300 303 303 302 301 299 296 293 292 293 293 292 290 287 285 282 279 278 278 277 276 276 277 277 277 277 277 277 277 277 277 277 277 277 276 276 276 276 276 275 275 273 270 269 268
314 311 305 302 298 293 289 286 285 285 286 287 287 284 281 278 276 275 276 277 277 279 281 283 286 287 287 285 284 284 288 296 307 311 309 298 292 293 298 297 297 298 298 292 290 292 297 299 301 300 296 293 290 287 284 283 282 281 280 278 276 275 276 277 277 277 277 277 276 276 276 276 276 276 276 276 275 275 275 274 274 273 271 269 267 267
311 307 301 298 295 291 287 285 283 283 282 280 278 276 275 275 276 277 278 278 279 281 283 285 287 287 286 282 279 278 282 289 299 304 304 298 293 292 295 295 295 295 296 288 282 279 281 288 295 298 295 290 288 287 286 285 284 283 281 279 279 278 278 278 277 276 276 276 276 276 276 276 275 275 275 275 274 274 274 273 272 271 270 268 266 265
306 302 298 295 292 288 285 282 281 280 280 279 277 276 275 276 278 280 282 282 282 282 282 284 286 288 289 286 283 281 281 285 294 299 301 296 292 291 293 292 293 294 295 290 286 282 277 281 287 293 294 291 288 286 288 287 285 283 279 278 278 279 279 278 277 275 275 275 275 275 275 274 274 274 274 273 273 273 272 272 271 270 268 267 266 265
301 298 295 292 290 288 286 283 281 279 279 279 279 280 281 281 284 284 286 285 284 283 281 281 282 283 285 286 286 285 284 286 291 294 294 291 290 290 291 289 291 292 291 289 288 287 284 283 285 289 292 293 290 287 284 285 284 282 278 276 276 277 278 278 276 276 275 274 274 273 272 272 272 271 271 271 270 270 270 270 269 268 267 266 265 264
298 295 291 289 288 287 286 285 284 283 282 282 282 283 286 287 289 289 289 288 285 284 282 279 277 275 275 277 279 281 283 286 288 290 289 287 287 287 287 285 286 287 287 286 286 285 285 285 286 287 288 290 291 290 287 285 284 283 280 279 279 279 279 277 276 275 275 274 273 272 271 271 270 269 269 269 269 269 269 269 268 268 267 266 264 263
292 290 288 286 286 286 286 287 287 288 289 289 290 291 293 293 292 292 290 287 284 281 280 277 275 272 269 269 270 273 277 282 284 284 283 282 281 281 280 281 281 281 282 283 284 284 283 285 287 287 286 285 288 291 294 294 290 286 282 282 281 280 279 277 275 274 274 273 272 272 271 271 270 270 270 270 270 270 270 269 268 268 267 266 265 264
289 288 287 284 283 284 285 287 290 293 296 297 298 298 296 294 292 289 287 284 280 277 275 274 273 271 268 268 269 270 272 275 277 278 277 276 274 273 275 277 277 276 275 276 279 281 282 284 287 288 286 285 284 287 292 294 293 289 285 283 281 279 278 277 275 273 271 271 271 271 271 271 271 271 272 272 271 271 270 268 267 267 266 266 265 264
285 285 284 285 286 287 291 293 295 297 298 297 296 296 295 292 289 286 283 281 277 274 271 271 271 271 270 269 269 270 271 273 274 274 274 272 269 268 270 273 274 274 272 271 273 275 277 279 281 283 286 288 288 288 288 288 288 289 289 287 282 277 274 274 274 272 271 271 272 272 272 271 271 271 272 271 270 269 267 267 265 263 263 264 264 264
284 283 284 288 290 294 296 297 297 297 296 295 294 294 294 292 290 287 283 281 280 279 276 274 273 273 273 272 272 271 271 271 272 272 271 268 265 264 265 269 272 273 273 271 270 270 272 273 275 276 279 283 286 288 288 286 286 287 290 288 285 279 275 276 276 275 274 273 273 273 273 272 270 269 268 267 266 264 264 263 262 260 258 257 259 260
287 287 289 293 295 296 295 295 295 295 294 296 296 296 295 295 294 294 292 289 287 286 285 282 281 279 277 274 272 271 270 270 269 268 268 265 263 261 262 264 268 271 274 272 271 269 270 271 273 274 276 279 281 282 282 283 285 286 287 286 285 285 285 282 280 278 277 274 272 272 272 272 270 268 266 265 263 261 261 261 260 259 256 254 252 253
290 292 294 296 296 294 293 293 294 295 297 298 297 296 296 296 296 297 297 296 294 291 290 290 291 289 286 281 277 273 270 269 268 267 266 263 261 260 260 262 264 267 271 272 271 270 268 269 271 274 276 279 281 282 282 283 284 285 284 285 287 288 287 281 277 276 276 274 273 271 271 271 269 268 266 265 263 262 259 258 257 257 256 253 251 249
293 293 292 292 291 291 292 295 297 299 301 300 297 294 293 293 294 295 296 295 295 295 295 294 293 292 291 290 287 283 276 271 268 267 267 265 263 261 261 261 262 264 267 271 273 273 270 268 269 272 275 277 279 280 282 285 286 285 283 284 287 290 288 284 281 279 275 274 273 272 270 269 268 267 266 264 263 261 260 258 258 257 256 255 252 249
289 288 288 289 291 294 297 299 301 301 299 296 293 292 291 292 293 294 294 294 294 294 294 293 292 290 289 290 290 290 288 282 276 271 269 268 266 264 264 264 264 263 264 268 272 276 277 273 271 272 275 277 278 279 281 284 286 286 285 284 283 281 280 284 286 285 279 275 273 271 269 268 268 268 266 264 263 261 259 258 257 256 255 254 252 250
285 287 290 294 298 302 303 301 300 298 295 293 292 293 293 294 294 294 293 292 292 292 291 293 294 294 292 292 293 295 294 292 287 281 275 271 270 269 269 268 268 267 266 266 268 272 277 278 279 279 279 278 277 278 280 283 285 286 284 283 281 278 276 279 281 282 280 277 274 271 269 269 269 268 267 264 261 259 258 257 257 256 254 251 249 248
287 292 296 301 303 303 301 299 297 295 293 292 292 293 294 295 294 293 290 290 290 291 292 293 293 293 293 295 297 298 297 295 292 289 286 281 278 274 272 270 269 269 268 267 267 267 269 274 279 283 285 281 278 276 276 280 283 284 284 283 282 280 278 278 277 276 276 275 274 272 271 270 269 267 266 264 262 260 257 255 254 253 252 250 248 246
294 298 301 302 301 299 296 296 295 294 293 292 292 292 292 292 291 290 288 288 289 291 293 293 291 290 289 293 295 297 297 297 296 295 294 292 288 284 280 276 273 270 270 270 269 269 269 271 275 278 282 283 281 279 276 277 277 279 281 282 281 280 278 276 274 273 272 272 272 272 272 270 268 266 265 265 264 261 258 255 253 251 250 248 247 245
301 302 302 301 298 296 294 295 294 294 294 293 293 292 291 290 290 290 290 290 291 292 294 293 292 290 289 290 291 292 293 295 297 297 297 296 293 290 287 285 282 279 276 275 274 274 273 271 271 271 273 276 277 278 278 277 275 275 277 278 279 277 275 274 273 272 271 270 269 268 268 266 265 265 266 266 265 262 260 257 254 251 249 247 246 244
305 302 299 296 294 293 293 294 294 294 294 294 293 293 291 289 290 291 291 291 291 291 292 292 292 292 291 291 291 291 292 292 293 294 295 296 296 295 293 292 292 290 287 283 280 278 277 272 267 263 262 265 269 273 277 276 275 273 273 273 273 273 273 273 273 272 270 268 267 264 260 258 258 260 264 265 265 263 262 260 257 254 251 248 246 244
297 294 292 291 290 290 292 293 294 294 293 293 293 293 293 291 290 289 288 289 289 289 288 289 290 291 291 291 292 293 293 293 293 294 295 295 296 297 297 298 299 299 297 292 289 286 284 279 269 261 256 258 262 267 273 275 275 273 271 270 269 270 271 273 273 272 270 270 268 264 259 257 255 256 258 260 262 263 263 261 258 255 252 249 246 245
292 289 288 287 288 289 290 291 291 291 291 291 292 293 294 293 292 291 289 289 289 289 289 289 289 289 289 290 291 292 292 293 294 295 295 296 297 299 299 301 304 305 303 301 298 296 293 290 285 275 264 260 261 264 270 274 277 278 275 272 270 270 271 272 273 273 272 271 269 267 263 259 256 255 253 256 259 261 262 260 258 256 253 249 247 245